FW5359 Weather Reports


time (UTC)temp
C
wind
direction
speed
KPH
gust
KPH
rain 1hr
cm
rain 24hr
cm
rain mn
cm
humidity
%
barometer
mb
20260906103303 24 147 0.0 4.8 0.00 0.00 0.00 83 1013.6
20260906102757 24 147 0.0 4.8 0.00 0.00 0.00 84 1013.5
20260906102250 24 148 0.0 0.0 0.00 0.00 0.00 85 1013.6
20260906101743 24 148 0.0 0.0 0.00 0.00 0.00 84 1013.6
20260906101237 24 148 0.0 0.0 0.00 0.00 0.00 84 1013.6
20260906100730 24 148 0.0 0.0 0.00 0.00 0.00 83 1013.6
20260906100225 24 148 0.0 0.0 0.00 0.00 0.00 82 1013.6
20260906095719 24 148 0.0 0.0 0.00 0.00 0.00 82 1013.5
20260906095443 24 148 0.0 0.0 0.00 0.00 0.00 82 1013.4
20260906094707 24 148 0.0 0.0 0.00 0.00 0.00 82 1013.5
20260906094201 24 148 0.0 0.0 0.00 0.00 0.00 82 1013.4
20260906093655 24 148 0.0 1.6 0.00 0.00 0.00 82 1013.4
20260906093149 24 148 0.0 3.2 0.00 0.00 0.00 82 1013.4
20260906092643 25 148 0.0 3.2 0.00 0.00 0.00 83 1013.4
20260906092137 25 148 0.0 0.0 0.00 0.00 0.00 83 1013.4
20260906091901 25 149 0.0 0.0 0.00 0.00 0.00 82 1013.5
20260906091125 25 149 0.0 0.0 0.00 0.00 0.00 81 1013.4
20260906090619 25 149 0.0 0.0 0.00 0.00 0.00 81 1013.5
20260906085606 25 149 0.0 0.0 0.00 0.00 0.00 81 1013.5
20260906085100 25 149 0.0 0.0 0.00 0.00 0.00 81 1013.6
20260906084555 25 149 0.0 0.0 0.00 0.00 0.00 81 1013.7
20260906083543 25 149 0.0 0.0 0.00 0.00 0.00 80 1013.6
20260906083037 25 149 0.0 0.0 0.00 0.00 0.00 80 1013.7
20260906082531 25 149 0.0 0.0 0.00 0.00 0.00 80 1013.8
20260906082025 25 149 0.0 0.0 0.00 0.00 0.00 80 1013.8
20260906081012 26 149 0.0 0.0 0.00 0.00 0.00 79 1014.0
20260906080737 26 149 0.0 0.0 0.00 0.00 0.00 79 1014.1
20260906080002 26 149 0.0 0.0 0.00 0.00 0.00 79 1014.2
20260906075454 26 149 0.0 0.0 0.00 0.00 0.00 79 1014.3
20260906074442 26 149 0.0 3.2 0.00 0.00 0.00 78 1014.4
20260906073936 26 149 0.0 3.2 0.00 0.00 0.00 78 1014.4
20260906073431 26 149 0.0 4.8 0.00 0.00 0.00 78 1014.5
20260906072925 26 149 0.0 4.8 0.00 0.00 0.00 78 1014.5
20260906072419 26 149 1.6 11.3 0.00 0.00 0.00 78 1014.5
20260906072145 26 149 1.6 11.3 0.00 0.00 0.00 77 1014.7
20260906071407 26 161 1.6 9.7 0.00 0.00 0.00 77 1014.9
20260906070900 26 163 1.6 8.0 0.00 0.00 0.00 76 1015.0
20260906070627 26 163 3.2 12.9 0.00 0.00 0.00 76 1015.2
20260906065849 26 163 3.2 12.9 0.00 0.00 0.00 76 1015.0
20260906065614 26 219 1.6 9.7 0.00 0.00 0.00 75 1015.2
20260906065107 26 232 1.6 9.7 0.00 0.00 0.00 74 1015.3
20260906064331 26 227 3.2 12.9 0.00 0.00 0.00 74 1015.3
20260906064055 27 229 3.2 12.9 0.00 0.00 0.00 74 1015.3
20260906063319 27 184 3.2 12.9 0.00 0.00 0.00 73 1015.2
20260906062813 27 211 1.6 12.9 0.00 0.00 0.00 73 1015.2
20260906062311 27 153 1.6 4.8 0.00 0.00 0.00 72 1015.0
20260906061811 27 153 1.6 11.3 0.00 0.00 0.00 71 1015.2
20260906061311 27 154 3.2 14.5 0.00 0.00 0.00 71 1015.2
20260906060811 27 150 3.2 14.5 0.00 0.00 0.00 71 1015.3
20260906060311 27 169 4.8 12.9 0.00 0.00 0.00 70 1015.3
20260906055811 27 157 4.8 12.9 0.00 0.00 0.00 70 1015.3
20260906055312 27 169 3.2 11.3 0.00 0.00 0.00 70 1015.3
20260906054811 27 145 3.2 11.3 0.00 0.00 0.00 69 1015.4
20260906054309 27 144 3.2 17.7 0.00 0.00 0.00 69 1015.4
20260906053809 27 175 3.2 17.7 0.00 0.00 0.00 69 1015.3
20260906053309 28 169 1.6 9.7 0.00 0.00 0.00 68 1015.3
20260906052807 28 156 3.2 11.3 0.00 0.00 0.00 68 1015.2
20260906052306 28 143 3.2 11.3 0.00 0.00 0.00 68 1015.2
20260906051803 28 147 3.2 11.3 0.00 0.00 0.00 69 1015.3
20260906051302 28 188 3.2 11.3 0.00 0.00 0.00 70 1015.2
20260906050801 28 157 1.6 11.3 0.00 0.00 0.00 70 1015.3
20260906050300 28 220 1.6 8.0 0.00 0.00 0.00 70 1015.3
20260906045759 28 190 1.6 8.0 0.00 0.00 0.00 70 1015.3
20260906045252 28 171 1.6 8.0 0.00 0.00 0.00 70 1015.5
20260906044746 28 165 1.6 12.9 0.00 0.00 0.00 70 1015.5
20260906044240 28 161 3.2 12.9 0.00 0.00 0.00 69 1015.5
20260906043734 28 175 3.2 14.5 0.00 0.00 0.00 69 1015.4
20260906042722 28 237 4.8 12.9 0.00 0.00 0.00 68 1015.3
20260906042446 29 207 3.2 12.9 0.00 0.00 0.00 67 1015.4
20260906041710 29 180 4.8 14.5 0.00 0.00 0.00 66 1015.4
20260906041203 29 159 4.8 14.5 0.00 0.00 0.00 66 1015.4
20260906040658 29 184 3.2 14.5 0.00 0.00 0.00 66 1015.2
20260906040152 29 166 3.2 12.9 0.00 0.00 0.00 66 1015.2
20260906035646 29 150 3.2 11.3 0.00 0.00 0.00 65 1015.0
20260906035140 29 171 4.8 14.5 0.00 0.00 0.00 65 1015.0
20260906034634 30 142 4.8 14.5 0.00 0.00 0.00 65 1014.9
20260906034400 30 153 3.2 9.7 0.00 0.00 0.00 64 1014.9
20260906033622 30 148 3.2 12.9 0.00 0.00 0.00 64 1014.8
20260906033117 30 171 4.8 16.1 0.00 0.00 0.00 63 1014.7
20260906032610 30 105 4.8 14.5 0.00 0.00 0.00 63 1014.5
20260906032335 30 166 4.8 19.3 0.00 0.00 0.00 62 1014.4
20260906031558 30 111 4.8 17.7 0.00 0.00 0.00 61 1014.3
20260906031052 30 150 3.2 14.5 0.00 0.00 0.00 60 1014.3
20260906030546 31 179 3.2 11.3 0.00 0.00 0.00 58 1014.2
20260906030040 31 144 3.2 11.3 0.00 0.00 0.00 57 1014.1
20260906025534 31 175 3.2 11.3 0.00 0.00 0.00 55 1013.9
20260906025028 31 157 3.2 9.7 0.00 0.00 0.00 54 1013.9
20260906024522 30 163 1.6 9.7 0.00 0.00 0.00 54 1013.8
20260906024015 30 155 1.6 16.1 0.00 0.00 0.00 54 1013.6
20260906023740 30 155 1.6 16.1 0.00 0.00 0.00 54 1013.5
20260906023004 30 115 0.0 3.2 0.00 0.00 0.00 55 1013.3
20260906022458 30 115 0.0 1.6 0.00 0.00 0.00 56 1013.1
20260906021952 30 115 0.0 1.6 0.00 0.00 0.00 57 1013.0
20260906021446 30 115 0.0 0.0 0.00 0.00 0.00 57 1012.9
20260906020940 30 115 0.0 0.0 0.00 0.00 0.00 57 1012.8
20260906020433 30 115 0.0 0.0 0.00 0.00 0.00 56 1012.6
20260906020205 31 115 0.0 0.0 0.00 0.00 0.00 56 1012.7
20260906015435 31 115 0.0 0.0 0.00 0.00 0.00 55 1012.6
20260906014930 31 115 0.0 0.0 0.00 0.00 0.00 54 1012.5
20260906014428 31 115 0.0 0.0 0.00 0.00 0.00 53 1012.5
20260906013926 31 115 0.0 0.0 0.00 0.00 0.00 54 1012.4
20260906013426 31 115 0.0 0.0 0.00 0.00 0.00 53 1012.4
20260906012926 31 115 0.0 0.0 0.00 0.00 0.00 53 1012.4
20260906012424 31 115 0.0 0.0 0.00 0.00 0.00 52 1012.4
20260906011924 31 115 0.0 0.0 0.00 0.00 0.00 52 1012.2
20260906011424 32 115 0.0 0.0 0.00 0.00 0.00 51 1012.2
20260906011155 32 115 0.0 0.0 0.00 0.00 0.00 51 1012.1
20260906005919 32 115 0.0 1.6 0.00 0.00 0.00 51 1012.1
20260906005419 32 115 0.0 4.8 0.00 0.00 0.00 51 1012.1
20260906004919 32 115 1.6 4.8 0.00 0.00 0.00 50 1012.2
20260906004420 32 115 1.6 6.4 0.00 0.00 0.00 50 1012.1
20260906003919 32 113 1.6 6.4 0.00 0.00 0.00 50 1012.1
20260906003422 32 123 1.6 6.4 0.00 0.00 0.00 50 1012.1
20260906002922 33 123 1.6 8.0 0.00 0.00 0.00 50 1012.1
20260906002422 33 123 3.2 9.7 0.00 0.00 0.00 50 1012.1
20260906001923 33 114 3.2 9.7 0.00 0.00 0.00 50 1012.0
20260906001416 33 121 3.2 11.3 0.00 0.00 0.00 50 1011.9
20260906001145 33 98 4.8 14.5 0.00 0.00 0.00 50 1011.9
20260906000414 33 94 4.8 14.5 0.00 0.00 0.00 50 1012.0
20260905235914 33 91 4.8 14.5 0.00 0.00 0.00 49 1011.9
20260905235418 33 115 4.8 14.5 0.00 0.00 0.00 49 1011.9
20260905234914 34 94 4.8 14.5 0.00 0.00 0.00 49 1011.9
20260905234414 34 104 3.2 12.9 0.00 0.00 0.00 49 1011.8
20260905233914 34 126 3.2 9.7 0.00 0.00 0.00 48 1011.9
20260905233414 34 115 3.2 11.3 0.00 0.00 0.00 48 1011.8
20260905232913 34 116 1.6 11.3 0.00 0.00 0.00 48 1012.0
20260905232644 34 106 3.2 11.3 0.00 0.00 0.00 47 1012.0
20260905231914 34 106 3.2 11.3 0.00 0.00 0.00 47 1012.0
20260905231413 35 144 3.2 11.3 0.00 0.00 0.00 47 1011.9
20260905231144 35 134 3.2 11.3 0.00 0.00 0.00 47 1012.0
20260905225916 35 27 1.6 11.3 0.00 0.00 0.00 47 1012.1
20260905225409 35 123 3.2 6.4 0.00 0.00 0.00 47 1012.0
20260905225135 35 118 3.2 9.7 0.00 0.00 0.00 47 1012.0
20260905224357 35 90 3.2 11.3 0.00 0.00 0.00 48 1012.1
20260905223851 34 150 3.2 11.3 0.00 0.00 0.00 48 1012.1
20260905223346 34 130 1.6 6.4 0.00 0.00 0.00 48 1012.2
20260905222840 33 113 1.6 6.4 0.00 0.00 0.00 49 1012.2
20260905222334 33 113 1.6 9.7 0.00 0.00 0.00 49 1012.2
20260905221827 33 113 3.2 9.7 0.00 0.00 0.00 49 1012.2
20260905221321 34 82 3.2 8.0 0.00 0.00 0.00 51 1012.1
20260905220816 34 80 3.2 8.0 0.00 0.00 0.00 51 1012.1
20260905220310 35 87 4.8 12.9 0.00 0.00 0.00 50 1012.1
20260905215258 35 118 4.8 12.9 0.00 0.00 0.00 48 1012.1
20260905214752 35 63 3.2 12.9 0.00 0.00 0.00 47 1012.1
20260905214246 36 166 3.2 12.9 0.00 0.00 0.00 49 1012.1
20260905213739 35 170 3.2 12.9 0.00 0.00 0.00 48 1012.2
20260905213234 35 194 3.2 8.0 0.00 0.00 0.00 49 1012.4
20260905212728 35 253 3.2 11.3 0.00 0.00 0.00 49 1012.5
20260905212221 35 204 3.2 11.3 0.00 0.00 0.00 50 1012.5
20260905211947 35 103 3.2 9.7 0.00 0.00 0.00 52 1012.5
20260905211441 34 161 1.6 9.7 0.00 0.00 0.00 52 1012.7
20260905210704 33 138 1.6 11.3 0.00 0.00 0.00 53 1012.7
20260905210158 34 193 3.2 11.3 0.00 0.00 0.00 52 1012.7
20260905205652 34 126 1.6 8.0 0.00 0.00 0.00 51 1012.8
20260905205416 34 167 3.2 16.1 0.00 0.00 0.00 51 1012.9
20260905204639 33 167 3.2 16.1 0.00 0.00 0.00 50 1013.0
20260905204133 34 71 4.8 11.3 0.00 0.00 0.00 52 1013.0
20260905203627 34 153 3.2 12.9 0.00 0.00 0.00 51 1013.1
20260905203122 34 80 3.2 12.9 0.00 0.00 0.00 51 1013.2
20260905202616 34 304 3.2 12.9 0.00 0.00 0.00 51 1013.3
20260905202340 34 114 4.8 14.5 0.00 0.00 0.00 51 1013.4
20260905201604 34 171 6.4 14.5 0.00 0.00 0.00 51 1013.5
20260905201058 34 116 4.8 16.1 0.00 0.00 0.00 49 1013.6
20260905200823 35 196 3.2 16.1 0.00 0.00 0.00 50 1013.5
20260905200046 35 104 3.2 12.9 0.00 0.00 0.00 51 1013.6
20260905195545 35 127 4.8 14.5 0.00 0.00 0.00 50 1013.7
20260905195045 35 250 3.2 14.5 0.00 0.00 0.00 48 1013.9
20260905194815 34 217 3.2 12.9 0.00 0.00 0.00 48 1013.9
20260905194043 33 279 3.2 11.3 0.00 0.00 0.00 54 1014.0
20260905193543 33 298 4.8 11.3 0.00 0.00 0.00 54 1014.1
20260905193043 33 128 3.2 14.5 0.00 0.00 0.00 55 1014.2
20260905192543 33 171 3.2 14.5 0.00 0.00 0.00 54 1014.4
20260905192041 33 177 4.8 14.5 0.00 0.00 0.00 54 1014.5
20260905191538 33 178 3.2 14.5 0.00 0.00 0.00 53 1014.7
20260905191038 33 242 1.6 12.9 0.00 0.00 0.00 56 1014.7
20260905190539 33 153 3.2 12.9 0.00 0.00 0.00 56 1014.9
20260905190039 33 165 3.2 11.3 0.00 0.00 0.00 56 1014.9
20260905185539 32 159 4.8 12.9 0.00 0.00 0.00 57 1015.0
20260905185309 32 164 4.8 12.9 0.00 0.00 0.00 56 1015.2
20260905184535 32 134 3.2 12.9 0.00 0.00 0.00 59 1015.3
20260905183534 33 124 3.2 14.5 0.00 0.00 0.00 58 1015.4
20260905183032 33 166 4.8 11.3 0.00 0.00 0.00 60 1015.4
20260905182529 32 109 3.2 11.3 0.00 0.00 0.00 60 1015.3
20260905182029 32 171 3.2 11.3 0.00 0.00 0.00 59 1015.5
20260905181529 32 167 3.2 11.3 0.00 0.00 0.00 59 1015.5
20260905181028 32 142 3.2 9.7 0.00 0.00 0.00 60 1015.6
20260905180529 32 182 3.2 12.9 0.00 0.00 0.00 60 1015.7
20260905180029 32 86 4.8 14.5 0.00 0.00 0.00 62 1015.7
20260905175529 32 67 3.2 14.5 0.00 0.00 0.00 63 1015.7
20260905175306 32 127 3.2 11.3 0.00 0.00 0.00 63 1015.9
20260905174529 31 206 3.2 12.9 0.00 0.00 0.00 64 1015.9
20260905174028 31 227 3.2 12.9 0.00 0.00 0.00 65 1015.9
20260905173529 31 96 3.2 12.9 0.00 0.00 0.00 65 1015.9
20260905173029 31 132 3.2 11.3 0.00 0.00 0.00 66 1016.0
20260905172529 31 128 3.2 9.7 0.00 0.00 0.00 66 1016.1
20260905172029 31 114 1.6 9.7 0.00 0.00 0.00 67 1016.2
20260905171529 31 169 3.2 9.7 0.00 0.00 0.00 69 1016.3
20260905171028 30 176 3.2 11.3 0.00 0.00 0.00 70 1016.3
20260905170757 30 126 1.6 11.3 0.00 0.00 0.00 72 1016.3
20260905170027 30 125 3.2 9.7 0.00 0.00 0.00 72 1016.4
20260905165520 30 126 3.2 9.7 0.00 0.00 0.00 73 1016.4
20260905165013 30 126 3.2 9.7 0.00 0.00 0.00 73 1016.5
20260905164508 30 150 3.2 11.3 0.00 0.00 0.00 73 1016.4
20260905164003 30 107 3.2 11.3 0.00 0.00 0.00 73 1016.4
20260905163456 30 123 3.2 11.3 0.00 0.00 0.00 74 1016.5
20260905162950 30 122 3.2 9.7 0.00 0.00 0.00 75 1016.5
20260905162715 29 136 1.6 9.7 0.00 0.00 0.00 75 1016.5
20260905161938 29 161 1.6 9.7 0.00 0.00 0.00 77 1016.6
20260905161432 29 161 3.2 11.3 0.00 0.00 0.00 77 1016.6
20260905161157 29 158 3.2 11.3 0.00 0.00 0.00 77 1016.7
20260905160420 29 155 3.2 11.3 0.00 0.00 0.00 77 1016.6
20260905155914 28 250 3.2 12.9 0.00 0.00 0.00 78 1016.6
20260905155408 28 146 3.2 12.9 0.00 0.00 0.00 78 1016.7
20260905154902 28 233 3.2 11.3 0.00 0.00 0.00 80 1016.5
20260905154356 28 232 3.2 11.3 0.00 0.00 0.00 79 1016.6
20260905153849 28 201 3.2 11.3 0.00 0.00 0.00 80 1016.5
20260905153344 28 164 1.6 11.3 0.00 0.00 0.00 80 1016.4
20260905153109 27 207 1.6 9.7 0.00 0.00 0.00 80 1016.4
20260905152332 27 221 3.2 12.9 0.00 0.00 0.00 80 1016.3
20260905151826 27 149 3.2 12.9 0.00 0.00 0.00 80 1016.4
20260905151320 27 157 3.2 9.7 0.00 0.00 0.00 81 1016.3
20260905150813 27 184 3.2 9.7 0.00 0.00 0.00 81 1016.3
20260905150307 27 254 1.6 9.7 0.00 0.00 0.00 81 1016.4
20260905145256 27 148 1.6 6.4 0.00 0.00 0.00 82 1016.4
20260905144750 27 209 1.6 6.4 0.00 0.00 0.00 83 1016.3
20260905144244 27 211 1.6 8.0 0.00 0.00 0.00 83 1016.3
20260905143738 27 215 1.6 8.0 0.00 0.00 0.00 84 1016.3
20260905143232 27 179 0.0 4.8 0.00 0.00 0.00 85 1016.4
20260905142726 26 178 1.6 4.8 0.00 0.00 0.00 85 1016.3
20260905142220 26 178 1.6 4.8 0.00 0.00 0.00 86 1016.3
20260905141714 26 178 1.6 4.8 0.00 0.00 0.00 86 1016.3
20260905141208 26 180 1.6 4.8 0.00 0.00 0.00 86 1016.3
20260905140702 26 180 1.6 4.8 0.00 0.00 0.00 86 1016.2
20260905140428 26 180 1.6 4.8 0.00 0.00 0.00 87 1016.1
20260905135650 26 180 1.6 4.8 0.00 0.00 0.00 87 1016.0
20260905135144 26 180 1.6 4.8 0.00 0.00 0.00 87 1016.1
20260905134637 26 179 1.6 8.0 0.00 0.00 0.00 87 1016.0
20260905134131 26 177 1.6 8.0 0.00 0.00 0.00 87 1016.0
20260905133626 26 184 1.6 6.4 0.00 0.00 0.00 87 1016.0
20260905133120 26 184 1.6 6.4 0.00 0.00 0.00 87 1015.9
20260905132614 26 159 1.6 6.4 0.00 0.00 0.00 87 1015.9
20260905132108 26 160 1.6 6.4 0.00 0.00 0.00 88 1015.9
20260905131602 25 160 0.0 6.4 0.00 0.00 0.00 88 1015.8
20260905131326 25 159 0.0 6.4 0.00 0.00 0.00 89 1015.8
20260905130550 25 160 0.0 6.4 0.00 0.00 0.00 89 1015.6
20260905130043 25 159 0.0 6.4 0.00 0.00 0.00 89 1015.6
20260905125544 25 159 0.0 3.2 0.00 0.00 0.00 89 1015.6
20260905125042 25 159 0.0 3.2 0.00 0.00 0.00 89 1015.6
20260905124540 25 159 0.0 3.2 0.00 0.00 0.00 89 1015.5
20260905124038 25 159 0.0 3.2 0.00 0.00 0.00 89 1015.5
20260905123538 25 159 0.0 1.6 0.00 0.00 0.00 89 1015.4
20260905123310 25 159 0.0 1.6 0.00 0.00 0.00 89 1015.3
20260905122536 25 159 0.0 3.2 0.00 0.00 0.00 89 1015.3
20260905122034 25 159 0.0 3.2 0.00 0.00 0.00 89 1015.3
20260905121806 25 159 0.0 3.2 0.00 0.00 0.00 89 1015.3
20260905121034 25 159 0.0 3.2 0.00 0.00 0.00 89 1015.2
20260905120804 25 159 0.0 3.2 0.00 0.00 0.00 89 1015.2
20260905120030 25 159 0.0 1.6 0.00 0.00 0.00 89 1015.3
20260905115528 25 159 0.0 1.6 0.00 0.00 0.00 89 1015.3
20260905115025 25 159 0.0 0.0 0.00 0.00 0.00 89 1015.2
20260905114524 25 159 0.0 0.0 0.00 0.00 0.00 89 1015.2
20260905114022 25 159 0.0 0.0 0.00 0.00 0.00 89 1015.2
20260905113520 25 159 0.0 0.0 0.00 0.00 0.00 89 1015.0
20260905113251 25 159 0.0 0.0 0.00 0.00 0.00 88 1015.0
20260905112520 25 159 0.0 0.0 0.00 0.00 0.00 88 1014.9
20260905112020 25 159 0.0 6.4 0.00 0.00 0.00 88 1015.2
20260905111519 25 159 1.6 6.4 0.00 0.00 0.00 88 1015.0
20260905111020 25 159 0.0 6.4 0.00 0.00 0.00 88 1014.9
20260905110520 25 161 0.0 1.6 0.00 0.00 0.00 88 1014.9
20260905110020 25 161 0.0 6.4 0.00 0.00 0.00 88 1014.9
20260905105520 25 161 0.0 6.4 0.00 0.00 0.00 88 1014.9
20260905105020 25 161 0.0 3.2 0.00 0.00 0.00 88 1014.8
20260905104520 25 160 0.0 3.2 0.00 0.00 0.00 88 1014.9
20260905104020 25 161 0.0 3.2 0.00 0.00 0.00 88 1014.9